Voltar ao catálogo

ONEWEB-0564

AtivoComunicaçõesPO
NORAD 55801·PAYLOAD·🇬🇧 United Kingdom

Lançado Mar 9, 2023 de Cape Canaveral Space Force Station

Loading…

Próximas Passagens (próximas 24 horas)

TLE

AtualizadoSource: CelesTrak SupGP

Época: Sep 14, 2026, 15:03 UTC

1 55801C 23029F   26257.62726111 -.00001438  00000+0 -35410-2 0  2572
2 55801  87.9140 256.6077 0002260  97.9060  11.9827 13.20774505    17

Acompanhe ONEWEB-0564 em tempo real com AllMySat

Download on the App Store